DateTimeUTC,F1_A11,F1_S11,BsB_S11,BsG_S11,BsR_S11,BbsB_S11,BbsG_S11,BbsR_S11,BaB_A11,BaG_A11,BaR_A11,Tu_S11,T_S11,Uu_S11,U_S11,P_S11,T1_A11
2021-07-31T08:00:00Z,00000200,20000000,,,,,,,0000.09,0000.04,0000.00,18.5,25.4,03.4,02.2,0679.8,31.0
2021-07-31T08:01:00Z,00000200,20000000,,,,,,,-000.36,-000.32,-000.04,18.5,25.4,03.4,02.2,0679.8,31.0
2021-07-31T08:02:00Z,00000200,20000000,,,,,,,0000.07,0000.52,0000.04,18.5,25.4,03.4,02.2,0679.8,31.0
2021-07-31T08:03:00Z,00000200,60000000,,,,,,,0001.21,0000.81,0000.45,18.5,25.4,03.4,02.2,0679.8,31.0
2021-07-31T08:04:00Z,00000200,40000000,0006.38,0004.67,0003.09,0001.13,0000.96,0000.70,0001.48,0000.92,0001.18,18.6,25.2,03.4,02.3,0680.8,31.0
2021-07-31T08:05:00Z,00000200,00000000,0007.19,0005.16,0003.38,0001.17,0000.56,0000.63,0001.22,0001.61,0000.88,18.7,25.2,03.4,02.3,0680.8,31.0
2021-07-31T08:06:00Z,00000200,00000000,0006.93,0005.03,0003.29,0000.85,0000.84,0000.66,0001.50,0001.21,0001.13,18.7,25.2,03.5,02.4,0680.8,31.0
2021-07-31T08:07:00Z,00000200,00000000,0007.52,0005.33,0003.32,0000.33,0000.68,0000.83,0001.53,0001.59,0001.09,18.7,25.2,03.6,02.4,0680.8,31.0
2021-07-31T08:08:00Z,00000200,00000000,0006.69,0005.02,0003.01,0001.42,0000.68,0000.61,0001.89,0001.39,0001.20,18.7,25.2,03.7,02.5,0680.8,31.0
2021-07-31T08:09:00Z,00000200,00000000,0006.76,0005.47,0002.98,0000.88,0001.01,0000.70,0001.23,0001.24,0000.76,18.7,25.1,03.6,02.4,0680.8,31.0
2021-07-31T08:10:00Z,00000200,00000000,0006.61,0004.59,0003.30,0000.76,0000.53,0000.51,0001.26,0001.24,0000.89,18.7,25.1,03.6,02.4,0680.9,31.0
2021-07-31T08:11:00Z,00000200,00000000,0006.79,0004.76,0003.09,0000.60,0000.93,0000.31,0001.51,0001.52,0001.05,18.7,25.2,03.6,02.4,0680.9,31.0
2021-07-31T08:12:00Z,00000200,00000000,0006.13,0004.71,0002.37,0000.25,0000.57,0000.40,0001.24,0000.74,0001.05,18.7,25.2,03.5,02.4,0680.9,31.0
2021-07-31T08:13:00Z,00000200,00000000,0006.30,0005.03,0003.17,0000.57,0000.87,0000.60,0001.37,0001.34,0001.01,18.7,25.2,03.5,02.4,0680.9,31.0
2021-07-31T08:14:00Z,00000200,00000000,0006.71,0004.54,0003.01,0000.47,0000.52,0000.54,0001.02,0001.03,0000.49,18.7,25.2,03.5,02.4,0680.8,31.0
2021-07-31T08:15:00Z,00000200,00000000,0006.44,0004.52,0002.79,0000.25,0000.48,0000.40,0001.58,0001.21,0001.15,18.7,25.2,03.5,02.4,0680.8,31.0
2021-07-31T08:16:00Z,00000200,00000000,0006.40,0005.25,0003.16,0000.42,0000.64,0000.87,0001.39,0001.56,0000.52,18.7,25.2,03.5,02.3,0680.8,31.0
2021-07-31T08:17:00Z,00000200,00000000,0006.60,0005.09,0003.53,0000.49,0000.82,0000.68,0001.24,0001.26,0001.32,18.7,25.2,03.6,02.4,0680.9,31.0
2021-07-31T08:18:00Z,00000200,00000000,0007.19,0005.23,0003.31,0000.80,0000.49,0000.25,0001.87,0001.30,0000.95,18.7,25.2,03.6,02.4,0680.9,31.0
2021-07-31T08:19:00Z,00000200,00000000,0007.98,0005.84,0003.42,0001.10,0000.90,0000.59,0001.33,0001.20,0001.10,18.7,25.1,03.6,02.4,0680.8,31.0
2021-07-31T08:20:00Z,00000200,00000000,0007.25,0005.98,0003.36,0001.01,0000.81,0000.57,0001.46,0001.32,0000.99,18.7,25.2,03.6,02.4,0680.8,31.0
2021-07-31T08:21:00Z,00000200,00000000,0007.74,0005.81,0003.70,0001.08,0000.56,0000.57,0001.90,0001.59,0001.27,18.7,25.2,03.6,02.5,0680.8,31.0
2021-07-31T08:22:00Z,00000200,00000000,0007.47,0006.01,0003.91,0001.00,0000.60,0000.58,0001.55,0001.32,0001.22,18.7,25.2,03.8,02.5,0680.8,31.0
2021-07-31T08:23:00Z,00000200,00000000,0008.39,0005.95,0003.53,0001.24,0001.15,0000.62,0001.48,0001.34,0000.84,18.7,25.2,03.7,02.5,0680.8,31.0
2021-07-31T08:24:00Z,00000200,00000000,0008.29,0006.12,0003.75,0000.79,0000.93,0000.90,0001.55,0001.91,0001.22,18.7,25.1,03.8,02.6,0680.8,31.0
2021-07-31T08:25:00Z,00000200,00000000,0008.21,0005.70,0003.47,0001.47,0000.80,0000.64,0001.40,0001.02,0001.06,18.7,25.1,03.7,02.5,0680.8,31.0
2021-07-31T08:26:00Z,00000200,00000000,0007.10,0005.80,0003.85,0000.81,0000.89,0000.63,0001.99,0001.65,0001.08,18.7,25.2,03.7,02.5,0680.8,31.0
2021-07-31T08:27:00Z,00000200,00000000,0009.72,0006.29,0003.76,0000.50,0000.70,0000.35,0001.47,0001.64,0001.23,18.7,25.2,03.8,02.6,0680.8,31.0
2021-07-31T08:28:00Z,00000200,00000000,0007.97,0006.62,0004.55,0000.79,0000.89,0000.81,0001.96,0001.71,0001.00,18.7,25.2,03.8,02.5,0680.8,31.0
2021-07-31T08:29:00Z,00000200,00000000,0008.98,0006.28,0003.93,0000.86,0000.99,0000.74,0001.46,0001.33,0001.03,18.8,25.2,03.9,02.6,0680.8,31.0
2021-07-31T08:30:00Z,00000200,00000000,0008.73,0006.10,0004.07,0001.01,0000.87,0000.63,0001.76,0001.62,0001.25,18.8,25.2,03.9,02.6,0680.8,31.0
2021-07-31T08:31:00Z,00000200,00000000,0008.02,0006.33,0003.96,0001.81,0000.94,0000.99,0001.61,0001.43,0001.43,18.8,25.2,03.9,02.6,0680.8,31.0
2021-07-31T08:32:00Z,00000200,00000000,0008.75,0006.42,0004.35,0001.11,0000.72,0000.65,0001.79,0001.45,0001.31,18.8,25.1,03.8,02.6,0680.8,31.0
2021-07-31T08:33:00Z,00000200,00000000,0009.18,0006.39,0004.09,0000.81,0001.07,0000.88,0001.60,0002.11,0001.10,18.8,25.2,03.9,02.6,0680.8,31.0
2021-07-31T08:34:00Z,00000200,00000000,0008.12,0006.86,0004.10,0000.81,0000.92,0000.64,0002.05,0001.15,0001.15,18.8,25.2,03.8,02.6,0680.8,31.0
2021-07-31T08:35:00Z,00000200,00000000,0009.86,0006.81,0004.38,0000.82,0000.87,0000.77,0001.83,0001.80,0001.63,18.8,25.1,03.9,02.7,0680.8,31.0
2021-07-31T08:36:00Z,00000200,00000000,0009.02,0006.60,0004.37,0001.04,0000.99,0000.69,0001.65,0001.74,0001.20,18.8,25.2,04.0,02.7,0680.8,31.0
2021-07-31T08:37:00Z,00000200,00000000,0009.46,0007.03,0004.36,0001.13,0000.84,0000.58,0001.91,0001.76,0001.19,18.8,25.1,04.0,02.7,0680.8,31.0
2021-07-31T08:38:00Z,00000200,00000000,0008.62,0007.13,0004.05,0001.38,0001.14,0000.96,0001.70,0001.45,0001.26,18.8,25.2,04.0,02.7,0680.8,31.0
2021-07-31T08:39:00Z,00000200,00000000,0008.98,0007.14,0004.51,0001.59,0000.44,0000.62,0001.76,0001.61,0001.01,18.8,25.2,04.0,02.7,0680.8,31.0
2021-07-31T08:40:00Z,00000200,00000000,0009.07,0006.95,0004.33,0001.13,0000.82,0000.80,0001.91,0001.83,0001.30,18.8,25.2,04.0,02.7,0680.8,31.0
2021-07-31T08:41:00Z,00000200,00000000,0008.99,0006.96,0004.07,0001.11,0000.97,0000.79,0001.79,0001.58,0001.39,18.8,25.2,03.9,02.7,0680.8,31.0
2021-07-31T08:42:00Z,00000200,00000000,0008.87,0007.28,0004.53,0001.39,0001.00,0001.11,0001.77,0001.56,0001.08,18.8,25.2,04.0,02.7,0680.8,31.0
2021-07-31T08:43:00Z,00000200,00000000,0010.45,0007.84,0005.04,0000.66,0001.14,0000.91,0002.11,0001.86,0001.61,18.8,25.2,04.2,02.8,0680.9,31.0
2021-07-31T08:44:00Z,00000200,00000000,0010.26,0008.28,0005.48,0001.29,0001.08,0000.60,0002.32,0002.02,0001.72,18.8,25.2,04.2,02.9,0680.8,31.0
2021-07-31T08:45:00Z,00000200,00000000,0011.35,0009.09,0005.43,0001.87,0001.03,0000.69,0002.58,0002.35,0001.76,18.8,25.2,04.4,02.9,0680.8,31.0
2021-07-31T08:46:00Z,00000200,00000000,0010.61,0008.33,0005.27,0001.67,0001.21,0000.78,0002.20,0001.98,0001.82,18.8,25.2,04.6,03.1,0680.8,31.0
2021-07-31T08:47:00Z,00000200,00000000,0011.23,0008.48,0005.51,0001.38,0000.89,0001.08,0002.20,0002.25,0001.28,18.8,25.2,04.6,03.1,0680.8,31.0
2021-07-31T08:48:00Z,00000200,00000000,0011.14,0008.37,0005.76,0000.83,0001.00,0001.08,0002.19,0002.05,0001.86,18.8,25.2,04.6,03.1,0680.8,31.0
2021-07-31T08:49:00Z,00000200,00000000,0009.25,0007.63,0004.89,0000.91,0000.96,0001.02,0002.12,0002.02,0001.41,18.8,25.2,04.7,03.1,0680.8,31.0
2021-07-31T08:50:00Z,00000200,00000000,0009.98,0007.81,0004.97,0001.52,0001.08,0000.87,0001.74,0001.71,0000.86,18.8,25.2,04.7,03.2,0680.8,31.0
2021-07-31T08:51:00Z,00000200,00000000,0009.52,0007.02,0004.53,0001.08,0000.94,0000.57,0002.35,0002.21,0001.66,18.8,25.2,04.6,03.1,0680.8,31.0
2021-07-31T08:52:00Z,00000200,00000000,0008.90,0006.25,0003.71,0001.05,0001.10,0000.51,0001.57,0001.11,0001.57,18.8,25.2,04.7,03.2,0680.8,31.0
2021-07-31T08:53:00Z,00000200,00000000,0008.14,0005.99,0003.51,0000.94,0000.80,0000.49,0002.06,0001.89,0001.22,18.8,25.2,04.9,03.3,0680.8,31.0
2021-07-31T08:54:00Z,00000200,00000000,0007.52,0005.22,0003.20,0001.59,0000.73,0000.79,0001.62,0001.39,0000.81,18.8,25.2,05.0,03.4,0680.8,31.0
2021-07-31T08:55:00Z,00000200,00000000,0008.34,0005.27,0003.08,0001.59,0000.80,0000.65,0000.98,0001.42,0001.27,18.8,25.2,05.0,03.4,0680.8,31.0
2021-07-31T08:56:00Z,00000200,00000000,0007.44,0005.61,0003.00,0000.71,0001.00,0000.25,0002.04,0001.33,0000.99,18.8,25.2,05.2,03.6,0680.7,31.0
2021-07-31T08:57:00Z,00000200,40000000,,,,,,,0000.38,-000.07,0000.11,18.9,25.2,05.4,03.7,0680.6,31.0
2021-07-31T08:58:00Z,00000200,60000000,,,,,,,-000.03,0000.59,0000.50,18.6,25.3,05.0,03.3,0679.8,31.0
2021-07-31T08:59:00Z,00000200,20000000,,,,,,,0000.00,-000.00,0000.04,18.6,25.4,05.0,03.3,0679.7,31.0
